Terug naar catalogus

FENGYUN 1C DEB

ActiefSSO
NORAD 30507·DEBRIS·🇨🇳 China

Gelanceerd May 10, 1999 vanaf Taiyuan Satellite Launch Center

Loading…

Volgende Passages (komende 24 uur)

TLE

VersSource: Space-Track

Epoch: Sep 14, 2026, 03:17 UTC

1 30507U 99025AHV 26257.13713030  .00001685  00000-0  83805-3 0  9997
2 30507  98.9938 328.5113 0128288 118.0822 273.1279 14.14177062  3789

Volg FENGYUN 1C DEB in realtime met AllMySat

Download on the App Store